Regional Weather Roundup
Issued by NWS Goodland, KS

Home | Current Version | Previous Version | Text Only | Print | Product List | Glossary On
Versions: 1 2 3 4 5 6 7 8 9 10 11 12 13 14 15 16 17 18 19 20 21 22 23 24 25 26 27 28 29 30 31 32 33 34 35 36 37 38 39 40 41 42 43 44 45 46 47 48 49 50
000
ASUS43 KGLD 062208
RWRGLD

GOODLAND FORECAST AREA HOURLY WEATHER ROUNDUP
NATIONAL WEATHER SERVICE GOODLAND KS
400 PM MDT MON JUL 06 2015

...OFFICIAL OBSERVATIONS...

CITY           SKY/WX    TMP DP  RH WIND       PRES   REMARKS
GOODLAND KS    CLOUDY    74  58  57 N17       30.13F
HILL CITY KS   CLOUDY    78  60  53 N17G28    30.02F HAZE
IMPERIAL NEB   CLOUDY    74  51  44 N13       30.15F
MCCOOK NEB     MOSUNNY   79  55  43 N17G25    30.08F HAZE
AKRON CO       CLOUDY    67  54  63 N15       30.23F HAZE
BURLINGTON CO  PTSUNNY   72  55  55 NE20      30.18F
LIMON CO       CLOUDY    64  53  67 N14       30.27S
$$

...UNOFFICIAL OBSERVATIONS...

CITY           SKY/WX    TMP DP  RH WIND       PRES   REMARKS
COLBY KS       CLOUDY    75  61  60 N17G24    30.11F
GOVE KS          N/A     75  32  20 MISG        N/A
NORTON KS      CLOUDY    75  50  41 N17G25    30.03S
SHARON SPRINGS   N/A     70  60  71 N12         N/A
KIT CARSON CO    N/A     71  57  61 MISG        N/A
YUMA CO          N/A     69  53  57 E10         N/A
$$


USA.gov is the U.S. government's official web portal to all federal, state and local government web resources and services.